User: anonymous   Login
Location: ?
(35.4064°N, 139.3593°E)
Time: 12:13:21
(UTC+00:00)
Language:

Meteor 2-10 - Orbit

View from above orbital plane
View from above orbital plane
View from above satellite
View from above satellite

Ground track
Ground track

The orbit data is extracted from the following two-line orbital elements,

1 14452U 83109A   24174.07077969  .00000260  00000-0  97007-4 0  9995
2 14452  81.1614   9.8168 0090630 147.6704 213.0076 14.26896784114288
Epoch (UTC): 22 June 2024 01:41:55
Eccentricity: 0.0090630
inclination: 81.1614°
perigee height: 737 km
apogee height: 867 km
right ascension of ascending node: 9.8168°
argument of perigee: 147.6704°
revolutions per day: 14.26896784
mean anomaly at epoch: 213.0076°
orbit number at epoch: 11428

The dashed part of the orbit path shows where the satellite is in the earth's shadow,  

DLR